VOZ1534 YMHB-YMML

Flight info

Callsign VOZ1534
Flight time 1h 1m
Altitude 36000
Route LATUM H111 LT H215 RAZZI
Aircraft B737/M-SDE2E3FGHIRWXY/LB1

Departure

Time 2026-05-05 12:49
Airport Hobart International Airport (YMHB)

Arrival

Time 2026-05-05 13:51
Airport Melbourne Airport (YMML)
Time Latitude Longitude Altitude Speed Heading
2026-05-05 12:26 -42.83684 147.50623 21 ft 0 kts 225°
2026-05-05 12:44 -42.83672 147.50639 22 ft 4 kts 225°
2026-05-05 12:44 -42.83655 147.50662 21 ft 4 kts 220°
2026-05-05 12:44 -42.83637 147.50674 22 ft 4 kts 152°
2026-05-05 12:45 -42.83621 147.50650 21 ft 4 kts 124°
2026-05-05 12:45 -42.83613 147.50635 22 ft 0 kts 135°
2026-05-05 12:47 -42.83614 147.50637 22 ft 2 kts 135°
2026-05-05 12:47 -42.83662 147.50702 23 ft 17 kts 135°
2026-05-05 12:47 -42.83779 147.50824 21 ft 23 kts 152°
2026-05-05 12:48 -42.83899 147.50957 22 ft 22 kts 133°
2026-05-05 12:48 -42.83926 147.51112 21 ft 19 kts 49°
2026-05-05 12:48 -42.83834 147.51235 21 ft 18 kts 45°
2026-05-05 12:48 -42.83695 147.51302 21 ft 40 kts 332°
2026-05-05 12:49 -42.83316 147.50772 22 ft 114 kts 314°
2026-05-05 12:49 -42.82654 147.49865 313 ft 144 kts 315°
2026-05-05 12:49 -42.81908 147.48923 1016 ft 150 kts 318°
2026-05-05 12:49 -42.81157 147.47910 1775 ft 153 kts 314°
2026-05-05 12:50 -42.80413 147.46883 2608 ft 151 kts 312°
2026-05-05 12:50 -42.79680 147.45868 3441 ft 149 kts 310°
2026-05-05 12:50 -42.78920 147.44814 3958 ft 175 kts 310°
2026-05-05 12:50 -42.77986 147.43515 4254 ft 209 kts 310°
2026-05-05 12:51 -42.76892 147.42003 4801 ft 232 kts 311°
2026-05-05 12:51 -42.75737 147.40420 5767 ft 238 kts 311°
2026-05-05 12:51 -42.74555 147.38803 6780 ft 242 kts 311°
2026-05-05 12:51 -42.73358 147.37166 7741 ft 247 kts 311°
2026-05-05 12:52 -42.72119 147.35473 8636 ft 255 kts 311°
2026-05-05 12:52 -42.70861 147.33754 9654 ft 259 kts 311°
2026-05-05 12:52 -42.69573 147.31992 10453 ft 269 kts 312°
2026-05-05 12:52 -42.68186 147.30091 10732 ft 296 kts 312°
2026-05-05 12:53 -42.66703 147.28067 11400 ft 306 kts 312°
2026-05-05 12:53 -42.65214 147.26043 12412 ft 306 kts 311°
2026-05-05 12:53 -42.63712 147.23997 13406 ft 307 kts 311°
2026-05-05 12:53 -42.62189 147.21920 14203 ft 314 kts 311°
2026-05-05 12:54 -42.58383 147.18849 15930 ft 337 kts 343°
2026-05-05 12:54 -42.56781 147.18665 16513 ft 348 kts 355°
2026-05-05 12:54 -42.53580 147.19823 17538 ft 379 kts 22°
2026-05-05 12:55 -42.51335 147.21790 18354 ft 389 kts 28°
2026-05-05 12:55 -42.49858 147.23189 18805 ft 393 kts 28°
2026-05-05 12:55 -42.47598 147.25347 19498 ft 399 kts 28°
2026-05-05 12:55 -42.45312 147.27540 20215 ft 404 kts 28°
2026-05-05 12:56 -42.43003 147.29743 20894 ft 410 kts 29°
2026-05-05 12:56 -42.39875 147.32708 21772 ft 417 kts 29°
2026-05-05 12:56 -42.38261 147.34230 22248 ft 420 kts 29°
2026-05-05 12:56 -42.35850 147.36497 22946 ft 424 kts 29°
2026-05-05 12:57 -42.33328 147.38423 23550 ft 418 kts 12°
2026-05-05 12:57 -42.30523 147.39221 24127 ft 408 kts 355°
2026-05-05 12:57 -42.27737 147.38951 24734 ft 397 kts 342°
2026-05-05 12:57 -42.25022 147.38239 25246 ft 400 kts 341°
2026-05-05 12:58 -42.22264 147.37495 25741 ft 406 kts 342°
2026-05-05 12:58 -42.19476 147.36785 26286 ft 409 kts 343°
2026-05-05 12:58 -42.16662 147.36098 26862 ft 412 kts 343°
2026-05-05 12:58 -42.13827 147.35418 27425 ft 414 kts 343°
2026-05-05 12:59 -42.10980 147.34738 27951 ft 418 kts 343°
2026-05-05 12:59 -42.08107 147.34052 28462 ft 421 kts 343°
2026-05-05 12:59 -42.05210 147.33361 28962 ft 424 kts 343°
2026-05-05 13:00 -41.99418 147.31980 30124 ft 424 kts 343°
2026-05-05 13:00 -41.96520 147.31292 30777 ft 420 kts 343°
2026-05-05 13:01 -41.87944 147.29250 32348 ft 417 kts 343°
2026-05-05 13:01 -41.85094 147.28572 32893 ft 415 kts 343°
2026-05-05 13:01 -41.82254 147.27896 33417 ft 413 kts 343°
2026-05-05 13:01 -41.79422 147.27223 33900 ft 412 kts 343°
2026-05-05 13:02 -41.76602 147.26553 34335 ft 411 kts 343°
2026-05-05 13:02 -41.73789 147.25886 34768 ft 409 kts 343°
2026-05-05 13:02 -41.70986 147.25223 35209 ft 406 kts 343°
2026-05-05 13:02 -41.68207 147.24565 35645 ft 404 kts 344°
2026-05-05 13:03 -41.65475 147.23918 36025 ft 403 kts 344°
2026-05-05 13:03 -41.62701 147.23259 36081 ft 407 kts 344°
2026-05-05 13:03 -41.57105 147.21937 36098 ft 408 kts 344°
2026-05-05 13:04 -41.51732 147.19968 36113 ft 394 kts 333°
2026-05-05 13:04 -41.46683 147.17188 36126 ft 395 kts 332°
2026-05-05 13:05 -41.41582 147.14368 36117 ft 397 kts 332°
2026-05-05 13:05 -41.36454 147.11567 36101 ft 398 kts 333°
2026-05-05 13:06 -41.31316 147.08781 36113 ft 399 kts 333°
2026-05-05 13:06 -41.26168 147.06001 36108 ft 399 kts 333°
2026-05-05 13:07 -41.21056 147.03246 36124 ft 399 kts 333°
2026-05-05 13:07 -41.15914 147.00479 36113 ft 398 kts 333°
2026-05-05 13:08 -41.10793 146.97728 36115 ft 396 kts 333°
2026-05-05 13:08 -41.05689 146.94990 36119 ft 395 kts 333°
2026-05-05 13:09 -41.00586 146.92258 36119 ft 395 kts 333°
2026-05-05 13:09 -40.95520 146.89549 36125 ft 395 kts 333°
2026-05-05 13:10 -40.90418 146.86825 36126 ft 396 kts 333°
2026-05-05 13:10 -40.85304 146.84100 36128 ft 396 kts 333°
2026-05-05 13:11 -40.80188 146.81379 36126 ft 397 kts 333°
2026-05-05 13:11 -40.75057 146.78654 36132 ft 397 kts 333°
2026-05-05 13:12 -40.69954 146.75948 36129 ft 398 kts 333°
2026-05-05 13:12 -40.64806 146.73224 36116 ft 398 kts 333°
2026-05-05 13:13 -40.59661 146.70505 36132 ft 398 kts 333°
2026-05-05 13:13 -40.54505 146.67785 36139 ft 399 kts 333°
2026-05-05 13:14 -40.49373 146.65082 36141 ft 399 kts 333°
2026-05-05 13:14 -40.44201 146.62363 36141 ft 399 kts 334°
2026-05-05 13:15 -40.39036 146.59652 36128 ft 399 kts 334°
2026-05-05 13:15 -40.33897 146.56958 36147 ft 399 kts 334°
2026-05-05 13:16 -40.28734 146.54257 36151 ft 400 kts 334°
2026-05-05 13:16 -40.23557 146.51553 36149 ft 400 kts 334°
2026-05-05 13:17 -40.18411 146.48869 36136 ft 400 kts 334°
2026-05-05 13:17 -40.13244 146.46179 36150 ft 400 kts 334°
2026-05-05 13:18 -40.08066 146.43486 36162 ft 400 kts 334°
2026-05-05 13:18 -40.02881 146.40795 36164 ft 400 kts 334°
2026-05-05 13:19 -39.97735 146.38132 36164 ft 400 kts 334°
2026-05-05 13:19 -39.92534 146.35455 36166 ft 400 kts 334°
2026-05-05 13:20 -39.87378 146.32805 36167 ft 401 kts 334°
2026-05-05 13:20 -39.82179 146.30135 36164 ft 401 kts 334°
2026-05-05 13:21 -39.76996 146.27478 36164 ft 401 kts 334°
2026-05-05 13:21 -39.71801 146.24818 36163 ft 401 kts 334°
2026-05-05 13:22 -39.66609 146.22171 36169 ft 401 kts 334°
2026-05-05 13:22 -39.61407 146.19531 36171 ft 401 kts 334°
2026-05-05 13:23 -39.56214 146.16898 36178 ft 401 kts 334°
2026-05-05 13:23 -39.51047 146.14281 36175 ft 401 kts 334°
2026-05-05 13:24 -39.45852 146.11653 36182 ft 401 kts 334°
2026-05-05 13:24 -39.40656 146.09030 36181 ft 400 kts 334°
2026-05-05 13:25 -39.35482 146.06415 35933 ft 403 kts 334°
2026-05-05 13:25 -39.32869 146.05095 35459 ft 401 kts 334°
2026-05-05 13:25 -39.30265 146.03779 34974 ft 398 kts 334°
2026-05-05 13:26 -39.27686 146.02479 34545 ft 395 kts 335°
2026-05-05 13:26 -39.25137 146.01194 34122 ft 391 kts 335°
2026-05-05 13:26 -39.22640 145.99936 33651 ft 388 kts 335°
2026-05-05 13:26 -39.20132 145.98674 33214 ft 385 kts 335°
2026-05-05 13:27 -39.17652 145.97425 32786 ft 381 kts 335°
2026-05-05 13:27 -39.15192 145.96188 32379 ft 378 kts 335°
2026-05-05 13:27 -39.12748 145.94960 31976 ft 376 kts 335°
2026-05-05 13:27 -39.10316 145.93738 31582 ft 375 kts 335°
2026-05-05 13:28 -39.07872 145.92510 31196 ft 378 kts 335°
2026-05-05 13:28 -39.05417 145.91277 30787 ft 378 kts 335°
2026-05-05 13:28 -39.02992 145.90061 30386 ft 375 kts 335°
2026-05-05 13:28 -39.00566 145.88848 29946 ft 373 kts 335°
2026-05-05 13:29 -38.98159 145.87645 29497 ft 369 kts 335°
2026-05-05 13:29 -38.95777 145.86455 29069 ft 365 kts 335°
2026-05-05 13:29 -38.93427 145.85282 28632 ft 361 kts 335°
2026-05-05 13:29 -38.91084 145.84112 28218 ft 359 kts 335°
2026-05-05 13:30 -38.88758 145.82951 27796 ft 359 kts 335°
2026-05-05 13:30 -38.86428 145.81789 27379 ft 359 kts 335°
2026-05-05 13:30 -38.84091 145.80624 26961 ft 359 kts 335°
2026-05-05 13:30 -38.81770 145.79467 26531 ft 356 kts 335°
2026-05-05 13:31 -38.79463 145.78320 26110 ft 354 kts 336°
2026-05-05 13:31 -38.77206 145.77201 25705 ft 351 kts 336°
2026-05-05 13:31 -38.74936 145.76074 25296 ft 349 kts 335°
2026-05-05 13:31 -38.72679 145.74953 24893 ft 347 kts 335°
2026-05-05 13:32 -38.70432 145.73837 24478 ft 345 kts 335°
2026-05-05 13:32 -38.68195 145.72727 24046 ft 344 kts 335°
2026-05-05 13:32 -38.65965 145.71622 23586 ft 343 kts 335°
2026-05-05 13:32 -38.63743 145.70521 23125 ft 341 kts 335°
2026-05-05 13:33 -38.61539 145.69431 22698 ft 338 kts 335°
2026-05-05 13:33 -38.59353 145.68349 22251 ft 335 kts 336°
2026-05-05 13:33 -38.57182 145.67276 21846 ft 332 kts 336°
2026-05-05 13:33 -38.55037 145.66217 21442 ft 329 kts 336°
2026-05-05 13:34 -38.52932 145.65177 21045 ft 327 kts 336°
2026-05-05 13:34 -38.50818 145.64135 20642 ft 325 kts 336°
2026-05-05 13:34 -38.48716 145.63099 20242 ft 323 kts 336°
2026-05-05 13:34 -38.46634 145.62040 19808 ft 321 kts 333°
2026-05-05 13:35 -38.44625 145.60762 19294 ft 322 kts 329°
2026-05-05 13:35 -38.42656 145.59388 18863 ft 321 kts 328°
2026-05-05 13:35 -38.40713 145.58008 18460 ft 319 kts 328°
2026-05-05 13:35 -38.38799 145.56655 18010 ft 317 kts 328°
2026-05-05 13:36 -38.36874 145.55304 17584 ft 315 kts 328°
2026-05-05 13:36 -38.34961 145.53972 17177 ft 312 kts 329°
2026-05-05 13:36 -38.33059 145.52655 16783 ft 309 kts 329°
2026-05-05 13:36 -38.31176 145.51355 16386 ft 306 kts 329°
2026-05-05 13:37 -38.29311 145.50072 16003 ft 304 kts 329°
2026-05-05 13:37 -38.27453 145.48797 15612 ft 301 kts 329°
2026-05-05 13:37 -38.25618 145.47538 15242 ft 299 kts 329°
2026-05-05 13:37 -38.23789 145.46284 14856 ft 297 kts 329°
2026-05-05 13:38 -38.21971 145.45038 14481 ft 295 kts 329°
2026-05-05 13:38 -38.20167 145.43803 14103 ft 294 kts 329°
2026-05-05 13:38 -38.18389 145.42587 13697 ft 293 kts 330°
2026-05-05 13:38 -38.16601 145.41364 13280 ft 291 kts 330°
2026-05-05 13:39 -38.14822 145.40149 12889 ft 289 kts 330°
2026-05-05 13:39 -38.13056 145.38942 12504 ft 286 kts 330°
2026-05-05 13:39 -38.11303 145.37746 12109 ft 284 kts 330°
2026-05-05 13:39 -38.09564 145.36559 11741 ft 282 kts 330°
2026-05-05 13:40 -38.07860 145.35397 11380 ft 281 kts 330°
2026-05-05 13:40 -38.06142 145.34226 11006 ft 279 kts 330°
2026-05-05 13:40 -38.04425 145.33057 10489 ft 283 kts 330°
2026-05-05 13:40 -38.02692 145.31877 10189 ft 280 kts 330°
2026-05-05 13:41 -38.00993 145.30717 9873 ft 277 kts 329°
2026-05-05 13:41 -37.99314 145.29543 9522 ft 273 kts 329°
2026-05-05 13:41 -37.98215 145.28771 9294 ft 271 kts 329°
2026-05-05 13:41 -37.96040 145.27244 8875 ft 267 kts 329°
2026-05-05 13:42 -37.94938 145.26470 8663 ft 267 kts 329°
2026-05-05 13:42 -37.93332 145.25344 8373 ft 267 kts 329°
2026-05-05 13:42 -37.91708 145.24206 8065 ft 266 kts 329°
2026-05-05 13:42 -37.90090 145.23073 7757 ft 265 kts 329°
2026-05-05 13:43 -37.88471 145.21942 7450 ft 265 kts 329°
2026-05-05 13:43 -37.86856 145.20814 7147 ft 264 kts 329°
2026-05-05 13:43 -37.85268 145.19705 6840 ft 262 kts 329°
2026-05-05 13:43 -37.83676 145.18609 6539 ft 259 kts 330°
2026-05-05 13:44 -37.82093 145.17552 6222 ft 256 kts 331°
2026-05-05 13:44 -37.80529 145.16513 5926 ft 252 kts 331°
2026-05-05 13:44 -37.78985 145.15487 5630 ft 249 kts 331°
2026-05-05 13:44 -37.77460 145.14473 5343 ft 246 kts 331°
2026-05-05 13:45 -37.75950 145.13468 5060 ft 243 kts 331°
2026-05-05 13:45 -37.74459 145.12476 4771 ft 240 kts 331°
2026-05-05 13:45 -37.72989 145.11492 4487 ft 238 kts 328°
2026-05-05 13:45 -37.71781 145.10120 4211 ft 233 kts 307°
2026-05-05 13:46 -37.70802 145.08508 3952 ft 230 kts 307°
2026-05-05 13:46 -37.69822 145.06921 3684 ft 228 kts 307°
2026-05-05 13:46 -37.68857 145.05376 3428 ft 225 kts 307°
2026-05-05 13:46 -37.67889 145.03831 3158 ft 223 kts 307°
2026-05-05 13:47 -37.67231 145.02115 2858 ft 216 kts 276°
2026-05-05 13:47 -37.67170 145.00288 2642 ft 201 kts 275°
2026-05-05 13:47 -37.67049 144.98597 2429 ft 187 kts 275°
2026-05-05 13:47 -37.66945 144.97010 2196 ft 175 kts 274°
2026-05-05 13:48 -37.66856 144.95541 1994 ft 160 kts 274°
2026-05-05 13:48 -37.66777 144.94195 1843 ft 152 kts 274°
2026-05-05 13:48 -37.66703 144.92938 1749 ft 134 kts 274°
2026-05-05 13:48 -37.66636 144.91816 1530 ft 122 kts 275°
2026-05-05 13:49 -37.66573 144.90736 1370 ft 125 kts 275°
2026-05-05 13:49 -37.66508 144.89637 1203 ft 126 kts 275°
2026-05-05 13:49 -37.66443 144.88533 1022 ft 125 kts 276°
2026-05-05 13:49 -37.66380 144.87444 854 ft 125 kts 276°
2026-05-05 13:50 -37.66316 144.86348 687 ft 125 kts 275°
2026-05-05 13:50 -37.66252 144.85262 538 ft 122 kts 276°
2026-05-05 13:50 -37.66188 144.84243 405 ft 112 kts 276°
2026-05-05 13:50 -37.66147 144.83416 413 ft 73 kts 274°
2026-05-05 13:51 -37.66146 144.83036 409 ft 34 kts 257°
2026-05-05 13:51 -37.66212 144.82826 401 ft 0 kts 244°
2026-05-05 13:51 -37.66215 144.82818 400 ft 4 kts 244°
2026-05-05 13:51 -37.66246 144.82744 393 ft 14 kts 238°
2026-05-05 13:52 -37.66347 144.82682 390 ft 19 kts 177°
2026-05-05 13:52 -37.66445 144.82808 384 ft 22 kts 99°
2026-05-05 13:52 -37.66458 144.83000 388 ft 22 kts 96°
2026-05-05 13:52 -37.66468 144.83182 397 ft 21 kts 95°
2026-05-05 13:53 -37.66479 144.83361 401 ft 20 kts 94°
2026-05-05 13:53 -37.66490 144.83534 400 ft 19 kts 94°
2026-05-05 13:53 -37.66499 144.83701 404 ft 19 kts 96°
2026-05-05 13:53 -37.66508 144.83863 403 ft 17 kts 94°
2026-05-05 13:54 -37.66509 144.83887 403 ft 0 kts 95°
2026-05-05 13:54 -37.66513 144.83900 403 ft 7 kts 114°
2026-05-05 13:54 -37.66606 144.83945 399 ft 22 kts 168°
2026-05-05 13:54 -37.66723 144.84052 394 ft 24 kts 88°
2026-05-05 13:55 -37.66817 144.84197 390 ft 24 kts 170°
2026-05-05 13:55 -37.66991 144.84230 385 ft 27 kts 173°
2026-05-05 13:55 -37.67166 144.84268 382 ft 24 kts 160°
2026-05-05 13:55 -37.67202 144.84444 383 ft 18 kts 103°
2026-05-05 13:56 -37.67210 144.84545 384 ft 7 kts 84°
2026-05-05 13:56 -37.67186 144.84592 386 ft 9 kts 11°
2026-05-05 13:56 -37.67150 144.84589 386 ft 2 kts 352°
2026-05-05 13:56 -37.67135 144.84586 387 ft 1 kts 352°
2026-05-05 13:57 -37.67134 144.84586 387 ft 2 kts 352°
2026-05-05 13:57 -37.67132 144.84586 387 ft 0 kts 352°
2026-05-05 13:57 -37.67131 144.84585 387 ft 0 kts 352°
2026-05-05 13:57 -37.67130 144.84585 387 ft 0 kts 352°